{"data":{"norad_id":53480,"intl_designator":"2022-099R","name":"STARLINK-4442","alt_names":[],"object_type":"PAYLOAD","status":"ACTIVE","operator":null,"country":"US","launch_date":"2022-08-12","launch_site_code":"AFWTR","launch_vehicle":null,"mission":null,"orbit_class":"UNKNOWN","rcs_meters":null,"size_class":null,"mass_kg":null,"dimensions":null,"purposes":["comms"],"wikipedia_slug":null,"has_3d_model":false,"image_url":null,"decayed_at":null,"tle_current":{"epoch":"2026-09-20T11:58:20.406720Z","epoch_age_seconds":78594,"freshness":"FRESH","line1":"1 53480U 22099R   26263.49884730  .00659732  25375-3  53880-3 0  9998","line2":"2 53480  97.6071  36.6639 0004873 319.2807  40.8113 16.14178539226212","mean_motion":16.14178539,"eccentricity":0.0004873,"inclination_deg":97.6071,"raan_deg":36.6639,"arg_perigee_deg":319.2807,"mean_anomaly_deg":40.8113,"bstar":0.0005388,"rev_number":22621,"period_min":89.209462597124,"perigee_km":232.1824154633,"apogee_km":238.62797368613,"semimajor_km":6613.5421945747,"source":"CELESTRAK","updated_at":"2026-09-21T09:00:32.890210Z"}}}